Voltar ao catálogo

DS-EO

AtivoCiênciaVLEO
NORAD 52935·PAYLOAD·🇸🇬 Singapore

Lançado Jun 30, 2022 de Satish Dhawan Space Centre

Loading…

Próximas Passagens (próximas 24 horas)

TLE

AtualizadoSource: Space-Track

Época: Sep 14, 2026, 12:31 UTC

1 52935U 22072A   26257.52194692  .00004138  00000-0  17494-3 0  9991
2 52935   9.9848 235.1646 0001192 171.4081 188.6154 15.14464800232076

Acompanhe DS-EO em tempo real com AllMySat

Download on the App Store